Flag for U.S.A. Weather past 2 weeks in Evansville, Indiana, U.S.A.

Now
80 °F

Sunny.


Feels Like: 80 °F
Forecast: 60 / 79 °F
Wind: 13 mph from North

Location: Evansville Regional Airport

Current Time: Jul 24, 2014 at 3:46:48 PM

Latest Report: Jul 24, 2014 at 2:54 PM


Visibility: 10 mi

Pressure: 30.05 "Hg

Humidity: 42%

Dew point: 55 °F

Location of EvansvilleLocation

Historic Weather in Evansville — Graph

°F

Evansville temperature yesterday

Maximum temperature yesterday: 82 °F (at 4:54 PM)
Minimum temperature yesterday: 70 °F (at 11:54 PM)
Average temperature yesterday: 75 °F

Past Weeks' High & Low Weather Summary

 TemperatureHumidityPressure
High93 °F (Jul 13, 2:54 PM)97% (Jul 19, 4:54 AM)30.20 "Hg (Jul 19, 4:54 AM)
Low57 °F (Jul 16, 5:54 AM)32% (Jul 17, 1:54 PM)29.83 "Hg (Jul 14, 2:54 PM)
Average74 °F67%30.04 "Hg
* Reported Jul 9 2:54 PM — Jul 24 2:54 PM, Evansville, Weather by CustomWeather, © 2014

Note: Actual official high and low records may vary slightly from our data, if they occured in-between our weather recording intervals... More about our weather records

Advertising

Evansville weather history for previous 24 hours

 ConditionsComfort  
Time TempWeatherWind HumidityBarometerVisibility
2:54 PM
Jul 24
80 °FSunny.13 mph42%30.05 "Hg10 mi
1:54 PM80 °FPartly sunny.14 mph42%30.06 "Hg10 mi
12:54 PM80 °FScattered clouds.8 mph42%30.05 "Hg10 mi
11:54 AM78 °FPassing clouds.10 mph48%30.06 "Hg10 mi
10:54 AM76 °FSunny.10 mph56%30.06 "Hg10 mi
9:54 AM72 °FSunny.7 mph64%30.07 "Hg10 mi
8:54 AM68 °FPassing clouds.9 mph70%30.07 "Hg10 mi
7:54 AM63 °FPartly sunny.9 mph75%30.06 "Hg10 mi
6:54 AM60 °FPartly sunny.7 mph78%30.04 "Hg10 mi
5:54 AM60 °FPartly sunny.7 mph78%30.02 "Hg10 mi
4:54 AM61 °FOvercast.8 mph78%30.02 "Hg10 mi
3:54 AM62 °FClear.9 mph75%30.01 "Hg10 mi
2:54 AM63 °FPassing clouds.7 mph75%30.01 "Hg10 mi
1:54 AM65 °FOvercast.9 mph73%30.01 "Hg10 mi
12:54 AM68 °FOvercast.12 mph65%30.03 "Hg10 mi
11:54 PM
Jul 23
70 °FOvercast.12 mph64%30.03 "Hg10 mi
10:54 PM72 °FOvercast.12 mph68%30.03 "Hg10 mi
9:54 PM74 °FOvercast.8 mph79%30.03 "Hg10 mi
8:54 PM74 °FPassing clouds.8 mph79%30.01 "Hg10 mi
7:54 PM75 °FCloudy.14 mph79%30.00 "Hg8 mi
6:54 PM74 °FLight rain. Fog.12 mph88%29.98 "Hg5 mi
6:02 PM78 °FMore clouds than sun.6 mph79%29.98 "Hg8 mi
5:54 PM78 °FMostly cloudy.6 mph79%29.97 "Hg8 mi
4:54 PM82 °FPartly sunny.7 mph70%29.98 "Hg10 mi
3:54 PM81 °FOvercast.8 mph72%29.98 "Hg10 mi
Weather by CustomWeather, © 2014

See weather overviewHow to use our weather pages